GAOFEN 1-03

导读

高分一号03星(GAOFEN 1-03)是中国于2018年3月31日发射的光学遥感卫星,隶属于中国高分专项工程。卫星搭载多光谱与宽幅成像相机,具备多分辨率、大范围成像能力,可服务于国土监测、农业估产、灾害防治、环境保护等领域,为国民经济建设与地理信息应用提供稳定遥感数据支撑。

基本信息
目录编号:
43260
目录名称:
GAOFEN 1-03
国际标识:
2018-031B
轨道中心:
EARTH
卫星名称:
GAOFEN 1-03
卫星全名:
--
卫星状态:
在轨 (已飞行3080 天)
发射日期:
2018-03-31 UTC
国别 :
中国 (CN)
星等 :
--
轨道信息
数据来源 国际轨道数据
星历时间: 2026-09-05T20:24:41+0800
7小时前
查看轨道信息
半长轴: 7018.612km
偏心率: 0.0003222
轨道倾角: 98.044°
近地点辐角 144.448°
升交点赤经 310.637°
平近点角 215.695°
近地点: 638.213km
远地点: 642.737km
周期: 97.530分钟
每日圈数: 14.764746
详细信息
使用方式:
暂无
2D轨道图
3D轨道图
轨道高度分析图
轨道倾角分析图
轨道综合分析图
查看轨道综合分析图
交会数据列表
事件ID 空间交会对象 最接近时刻(TCA) 交会距离 交会风险概率(CRP) 交会风险指数(CRI) 操作
CDM_260906-183604-326006-976923
2026-09-06T
18:36:06+0000
0.482 km
远距离
1.365744E-4 高风险 0.78
CDM_260902-141303-155804-326027
2026-09-02T
14:13:07+0000
1.777 km
极远距离
3.920019E-6 低风险 0.47